San Francisco, CA

8:25 PM PST on December 03, 2016 (GMT -0800)
San Francisco International

Weather History for KSFO - January, 2006

Change the Weather History Date:

Saturday, January 7, 2006

  Actual Average Record
Temperature  
Mean Temperature 56 °F 50 °F  
Max Temperature 61 °F 56 °F 65 °F (2003)
Min Temperature 50 °F 44 °F 31 °F (1973)
Degree Days  
Heating Degree Days 9 15  
Month to date heating degree days 78 105  
Since 1 July heating degree days 956 1115  
Cooling Degree Days 0 0  
Month to date cooling degree days 0 0  
Year to date cooling degree days 0 0  
Growing Degree Days 5 (Base 50)    
Moisture  
Dew Point 51 °F    
Average Humidity 80    
Maximum Humidity 93    
Minimum Humidity 67    
Precipitation  
Precipitation 0.07 in 0.14 in 0.87 in (1956)
Month to date precipitation 1.25 0.96  
Year to date precipitation 1.25 0.96  
Since 1 July precipitation 11.98  
Snow  
Snow 0.00 in - 0.00 in ()
Month to date snowfall 0.0  
Since 1 July snowfall 0.0  
Snow Depth 0.00 in    
Sea Level Pressure  
Sea Level Pressure 30.16 in    
Wind  
Wind Speed 9 mph (West)    
Max Wind Speed 24 mph    
Max Gust Speed 26 mph    
Visibility 8 miles    
Events Rain    
T = Trace of Precipitation, MM = Missing Value Source: NWS Daily Summary

Daily Weather History Graph

Daily Weather History Graph

Search for Another Location

Airport or City:

Trip Planner

Search our weather history database for the weather conditions in past years. The results will help you decide how hot, cold, wet, or windy it might be!

Date:

Astronomy

Jan. 07, 2006 Rise Set
Actual Time 7:24 AM PST 5:07 PM PST
Civil Twilight 6:55 AM PST 5:36 PM PST
Nautical Twilight 6:23 AM PST 6:08 PM PST
Astronomical Twilight 5:51 AM PST 6:40 PM PST
Moon 12:10 PM PST (1/7) 1:03 AM PST (1/7)
Length of Visible Light 10h 40m
Length of Day
9h 42m
First Quarter, 61% of the Moon is Illuminated
Jan 7
First Quarter
Jan 14
Full
Jan 22
Last Quarter
Jan 29
New
Feb 4
First Quarter

Hourly Weather History & Observations

Time (PST) Temp. Dew Point Humidity Pressure Visibility Wind Dir Wind Speed Gust Speed Precip Events Conditions
12:36 AM 55.4 °F 53.6 °F 94% 30.00 in 8.0 mi West 9.2 mph - 0.03 in Rain Light Rain
12:56 AM 55.9 °F 54.0 °F 93% 30.01 in 4.0 mi West 12.7 mph - 0.04 in Rain Rain
1:06 AM 55.4 °F 53.6 °F 94% 30.01 in 2.5 mi West 11.5 mph - 0.01 in Rain Rain
1:27 AM 55.4 °F 53.6 °F 94% 30.01 in 5.0 mi West 16.1 mph 23.0 mph 0.03 in Rain Light Rain
1:56 AM 55.0 °F 53.1 °F 93% 30.02 in 8.0 mi West 18.4 mph - 0.03 in   Overcast
2:56 AM 55.0 °F 53.1 °F 93% 30.04 in 10.0 mi West 16.1 mph - 0.00 in   Overcast
3:56 AM 55.0 °F 51.1 °F 86% 30.05 in 10.0 mi West 12.7 mph 18.4 mph N/A   Overcast
4:56 AM 54.0 °F 52.0 °F 93% 30.07 in 10.0 mi West 12.7 mph - N/A   Mostly Cloudy
5:56 AM 54.0 °F 51.1 °F 90% 30.09 in 10.0 mi West 10.4 mph - N/A   Scattered Clouds
6:56 AM 54.0 °F 51.1 °F 90% 30.12 in 10.0 mi Calm Calm - N/A   Mostly Cloudy
7:56 AM 54.0 °F 51.1 °F 90% 30.14 in 10.0 mi Calm Calm - N/A   Mostly Cloudy
8:56 AM 55.0 °F 51.1 °F 86% 30.18 in 10.0 mi SW 5.8 mph - N/A   Scattered Clouds
10:56 AM 59.0 °F 50.0 °F 72% 30.21 in 10.0 mi Variable 5.8 mph - N/A   Scattered Clouds
11:56 AM 59.0 °F 48.9 °F 69% 30.21 in 10.0 mi West 10.4 mph - N/A   Mostly Cloudy
12:24 PM 57.2 °F 51.8 °F 82% 30.21 in 4.0 mi WSW 16.1 mph - 0.00 in Rain Light Rain
12:56 PM 55.9 °F 53.1 °F 90% 30.21 in 5.0 mi West 12.7 mph - 0.01 in   Overcast
1:56 PM 57.0 °F 52.0 °F 83% 30.20 in 10.0 mi West 16.1 mph - N/A   Mostly Cloudy
2:56 PM 55.9 °F 51.1 °F 84% 30.21 in 10.0 mi West 18.4 mph - N/A   Mostly Cloudy
3:56 PM 55.0 °F 51.1 °F 86% 30.22 in 10.0 mi West 12.7 mph - 0.00 in   Mostly Cloudy
4:56 PM 54.0 °F 50.0 °F 86% 30.24 in 10.0 mi West 17.3 mph - N/A   Scattered Clouds
5:56 PM 53.1 °F 48.9 °F 86% 30.25 in 10.0 mi West 5.8 mph - N/A   Partly Cloudy
6:56 PM 53.1 °F 48.0 °F 83% 30.25 in 10.0 mi Calm Calm - N/A   Partly Cloudy
7:56 PM 52.0 °F 48.0 °F 86% 30.26 in 10.0 mi Variable 5.8 mph - N/A   Mostly Cloudy
8:56 PM 51.1 °F 46.9 °F 86% 30.27 in 10.0 mi SSE 3.5 mph - N/A   Mostly Cloudy
9:56 PM 52.0 °F 46.9 °F 83% 30.27 in 10.0 mi Calm Calm - N/A   Overcast
10:56 PM 52.0 °F 48.0 °F 86% 30.28 in 7.0 mi South 3.5 mph - 0.00 in Rain Light Rain
11:56 PM 52.0 °F 48.9 °F 89% 30.27 in 6.0 mi WNW 3.5 mph - 0.00 in Rain Light Rain